[[{"header":{"parameterUnit":"m.s-1","parameterCategory":1,"la1":30.2992,"la2":30.254,"lo1":-89.0895,"lo2":-89.0443,"dy":0.0025,"dx":0.0025,"nx":19,"ny":19,"refTime":"2026-04-09T09:00:00:Z","depth":0,"parameterNumber":2,"parameterNumberName":"U-component_of_WINDS"},"data":[0,0,0,-5.5509,-5.5509,-5.5461,-5.5461,-5.546,-5.5461,0,0,0,0,0,0,0,0,0,0,0,-5.5559,-5.556,-5.5509,-5.5509,-5.5461,-5.5461,-5.546,-5.5461,0,0,0,0,0,0,0,0,0,0,0,-5.5558,-5.556,-5.5561,-5.5509,-5.5461,-5.546,-5.546,-5.5475,0,0,0,0,0,0,0,0,0,0,-5.5511,-5.5591,-5.5559,-5.5561,-5.5509,-5.5461,-5.546,-5.5475,-5.5474,-5.5508,0,-5.5546,0,-5.5504,-5.5465,-5.5465,0,0,0,-5.5483,-5.5592,-5.5547,-5.5561,-5.5509,-5.5462,-5.5475,-5.5474,-5.5473,-5.5507,-5.5545,-5.5544,-5.5504,-5.5465,-5.5465,-5.5745,-5.5747,0,0,-5.5485,-5.5569,-5.5548,-5.5548,-5.5558,-5.5477,-5.5474,-5.5472,-5.552,-5.5545,-5.5542,-5.5504,-5.5465,-5.5466,-5.5742,-5.5745,0,0,0,-5.5511,-5.5573,-5.5526,-5.555,-5.5537,-5.5476,-5.5473,-5.552,-5.5497,-5.5542,-5.5504,-5.5466,-5.5466,-5.5739,-5.5743,-5.595,0,0,0,-5.5511,-5.5587,-5.5529,-5.558,-5.5538,-5.5527,-5.5522,-5.5498,-5.5495,-5.5504,-5.5466,-5.5467,-5.5736,-5.5741,-5.5938,-5.6035,0,0,0,-5.555,-5.5591,-5.5596,-5.5584,-5.5566,-5.5525,-5.5502,-5.5495,-5.5473,-5.5465,-5.5467,-5.5734,-5.5741,-5.5928,-5.6017,-5.6133,0,0,0,-5.5616,-5.578,-5.5601,-5.577,-5.5568,-5.5653,-5.5501,-5.5561,-5.5579,-5.5466,-5.5737,-5.5743,-5.5924,-5.6006,-5.6123,-5.6247,-5.6307,0,0,-5.587,-5.5814,-5.5907,-5.5745,-5.5884,-5.5654,-5.5823,-5.576,-5.5683,-5.5729,-5.5735,-5.5942,-5.6015,-5.6131,-5.6609,-5.6658,0,0,0,-5.6016,-5.6085,-5.6103,-5.6124,-5.608,-5.605,-5.5952,-5.5929,-5.5964,-5.5723,-5.6013,-5.6054,-5.6118,-5.6174,-5.6215,-5.6265,-5.5772,-5.5771,-5.5771,-5.6498,-5.639,-5.6537,-5.6425,-5.6447,-5.6345,-5.6354,-5.6306,-5.619,-5.6261,-5.6274,-5.6577,-5.6646,-5.6676,-5.673,-5.633,-5.6331,-5.6332,-5.6332,-5.6862,-5.6942,-5.6786,-5.6872,-5.6759,-5.683,-5.674,-5.6656,-5.6708,-5.6558,-5.6609,-5.6456,-5.6732,-5.6773,-5.6347,-5.6344,-5.6342,-5.6341,-5.634,-5.7166,-5.7186,-5.7155,-5.7174,-5.7203,-5.7083,-5.714,-5.7034,-5.6934,-5.6985,-5.6988,-5.6985,-5.6969,-5.6994,-5.6995,-5.6996,-5.6997,-5.6998,-5.6998,-5.7494,-5.7452,-5.7513,-5.7481,-5.7481,-5.7468,-5.7369,-5.7367,-5.7337,-5.7256,-5.7255,-5.7135,-5.6778,-5.6691,-5.7014,-5.7011,-5.7009,-5.7008,-5.7007,-5.7905,-5.7795,-5.789,-5.789,-5.7845,-5.7881,-5.7744,-5.775,-5.7732,-5.7765,-5.7633,-5.7386,-5.7321,-5.7288,-5.7216,-5.7655,-5.7655,-5.7655,-5.7655,-5.8163,-5.8119,-5.8192,-5.82,-5.8196,-5.8083,-5.8195,-5.8121,-5.8026,-5.801,-5.793,-5.7825,-5.7796,-5.7748,-5.7705,-5.7636,-5.8172,-5.8172,-5.8173,-5.841,-5.8361,-5.8476,-5.8382,-5.8339,-5.8306,-5.8408,-5.8426,-5.8296,-5.8191,-5.7995,-5.7973,-5.7801,-5.7751,-5.7643,-5.7578,-5.7449,0,0]},{"header":{"parameterUnit":"m.s-1","parameterCategory":1,"la1":30.2992,"la2":30.254,"lo1":-89.0895,"lo2":-89.0443,"dy":0.0025,"dx":0.0025,"nx":19,"ny":19,"refTime":"2026-04-09T09:00:00:Z","depth":0,"parameterNumber":3,"parameterNumberName":"V-component_of_WINDS"},"data":[0,0,0,-0.523,-0.5231,-0.5264,-0.5264,-0.5304,-0.5304,0,0,0,0,0,0,0,0,0,0,0,-0.522,-0.522,-0.523,-0.5231,-0.5264,-0.5264,-0.5304,-0.5304,0,0,0,0,0,0,0,0,0,0,0,-0.522,-0.522,-0.522,-0.5231,-0.5264,-0.5264,-0.5304,-0.528,0,0,0,0,0,0,0,0,0,0,-0.5248,-0.5238,-0.522,-0.522,-0.5231,-0.5264,-0.5264,-0.5279,-0.5281,-0.5288,0,-0.5295,0,-0.53,-0.5307,-0.5307,0,0,0,-0.5231,-0.5236,-0.5245,-0.522,-0.5231,-0.5264,-0.5249,-0.528,-0.5283,-0.5292,-0.5296,-0.5297,-0.5301,-0.5307,-0.5307,-0.5347,-0.5347,0,0,-0.523,-0.5226,-0.5243,-0.5247,-0.5242,-0.5248,-0.525,-0.5282,-0.5286,-0.5296,-0.5298,-0.5302,-0.5308,-0.5308,-0.5347,-0.5347,0,0,0,-0.5224,-0.5224,-0.5233,-0.5245,-0.5251,-0.5249,-0.5251,-0.5285,-0.5287,-0.5299,-0.5302,-0.5308,-0.5308,-0.5346,-0.5347,-0.535,0,0,0,-0.5223,-0.5221,-0.5232,-0.523,-0.5251,-0.5269,-0.5253,-0.5285,-0.5289,-0.5302,-0.5308,-0.5309,-0.5346,-0.5347,-0.535,-0.5353,0,0,0,-0.5218,-0.5221,-0.5225,-0.523,-0.5244,-0.5268,-0.5273,-0.5286,-0.5291,-0.5307,-0.5309,-0.5346,-0.5346,-0.5349,-0.5352,-0.5361,0,0,0,-0.5212,-0.523,-0.5225,-0.5246,-0.5243,-0.527,-0.5273,-0.5293,-0.5307,-0.5308,-0.5346,-0.5347,-0.5349,-0.5352,-0.5361,-0.5368,-0.537,0,0,-0.5232,-0.5232,-0.5244,-0.5241,-0.5267,-0.5265,-0.5292,-0.5309,-0.5315,-0.5335,-0.5336,-0.535,-0.5352,-0.5361,-0.5387,-0.5389,0,0,0,-0.5249,-0.5258,-0.5266,-0.5279,-0.5291,-0.5301,-0.5315,-0.532,-0.5338,-0.5325,-0.5356,-0.5357,-0.5362,-0.5366,-0.5368,-0.5372,-0.5348,-0.5348,-0.5348,-0.5274,-0.5278,-0.5298,-0.5305,-0.5317,-0.5329,-0.5339,-0.5348,-0.5351,-0.5358,-0.5364,-0.5379,-0.5383,-0.5385,-0.5389,-0.5368,-0.5368,-0.5368,-0.5368,-0.5303,-0.5316,-0.5315,-0.5335,-0.5338,-0.5354,-0.5365,-0.5365,-0.538,-0.5376,-0.538,-0.5375,-0.5387,-0.5391,-0.5369,-0.5369,-0.5369,-0.5369,-0.5369,-0.532,-0.5326,-0.5332,-0.5348,-0.5361,-0.5367,-0.538,-0.5384,-0.5387,-0.5391,-0.5398,-0.5398,-0.5397,-0.5394,-0.5394,-0.5394,-0.5394,-0.5394,-0.5394,-0.5335,-0.5341,-0.5352,-0.5364,-0.5371,-0.538,-0.5389,-0.5396,-0.5405,-0.5406,-0.5406,-0.5406,-0.5387,-0.5382,-0.5395,-0.5395,-0.5395,-0.5395,-0.5395,-0.5364,-0.5357,-0.5374,-0.538,-0.5393,-0.5404,-0.5406,-0.5419,-0.5425,-0.5431,-0.543,-0.5415,-0.5415,-0.5414,-0.541,-0.5429,-0.5429,-0.5429,-0.5429,-0.5378,-0.5377,-0.5394,-0.5403,-0.5414,-0.5417,-0.5434,-0.544,-0.5445,-0.5449,-0.5446,-0.5441,-0.5439,-0.544,-0.5439,-0.5435,-0.546,-0.546,-0.546,-0.5395,-0.5395,-0.541,-0.5414,-0.5423,-0.5431,-0.5446,-0.5457,-0.5462,-0.5461,-0.5451,-0.545,-0.5441,-0.5438,-0.5439,-0.5436,-0.5429,0,0]}]]